Regional Weather Roundup
Issued by NWS

Home | Current Version | Previous Version | Graphics & Text | Print | Product List | Glossary On
Versions: 1 2 3 4 5 6 7 8 9 10 11 12 13 14 15 16 17 18 19 20 21 22 23 24 25 26 27 28 29 30 31 32 33 34 35 36 37 38 39 40 41 42 43 44 45 46 47 48 49 50
000
ASUS43 KIND 220559
RWRIN

WEATHER ROUNDUP FOR INDIANA
NATIONAL WEATHER SERVICE INDIANAPOLIS IN
200 AM EDT MON MAY 22 2017

NOTE: "FAIR" INDICATES FEW OR NO CLOUDS BELOW 12,000 FEET WITH NO
SIGNIFICANT WEATHER AND/OR OBSTRUCTIONS TO VISIBILITY.

* - STATION DOES NOT REPORT WEATHER SUCH AS PRECIPITATION OR FOG.

+ - STATION NOT QUALITY CONTROLLED BY THE NATIONAL WEATHER SERVICE.
    USE DATA WITH CAUTION...ESPECIALLY DEWPOINT AND RELATIVE
    HUMIDITY OBSERVATIONS.

INZ001>003-010>013-019-020-220700-
NORTHWEST INDIANA

CITY           SKY/WX    TMP DP  RH WIND       PRES   REMARKS
MICHIGAN CITY+ CLOUDY    50  41  71 SW7       30.03F
MONTICELLO +   CLEAR     49  44  81 SW6       30.06F
6HR MIN TEMP:  49; 6HR MAX TEMP:  59;

RENSSELAER +   CLOUDY    50  43  76 SW7       30.06F

$$

LMZ046-743>745-220700-
SOUTHERN LAKE MICHIGAN

STATION/POSITION TIME  TEMP    WIND        PRES    WAVE
                       AIR SEA DIR/SP/G            HT
                 (UTC) (F)     (DEG/KT/KT) (MB)    (FT)
BURNS HARBOR     0540   53     230/ 10/ 17 1017.6F
MICHIGAN CITY    0530   52     210/ 14/ 15   N/A
5NW MICH CITY    0550   52 53  240/ 16/ 19   N/A     3

$$

INZ004-005-014>016-021>024-220700-
NORTH CENTRAL INDIANA

CITY           SKY/WX    TMP DP  RH WIND       PRES   REMARKS
GOSHEN         CLOUDY    51  38  60 W15G22    30.02F
6HR MIN TEMP:  51; 6HR MAX TEMP:  61;

SOUTH BEND     CLOUDY    50  40  68 SW10      30.02F
6HR MIN TEMP:  50; 6HR MAX TEMP:  59;


$$

INZ006>009-017-018-025>027-220700-
NORTHEAST INDIANA

CITY           SKY/WX    TMP DP  RH WIND       PRES   REMARKS
ANGOLA *+      CLOUDY    52  43  71 W14       30.00F
FORT WAYNE     MOCLDY    52  41  66 W17G28    30.04S
6HR MIN TEMP:  52; 6HR MAX TEMP:  66;

KENDALLVILLE + CLOUDY    50  39  65 W15G24    30.02F

$$

INZ028-029-035-036-043>045-051>053-220700-
WEST CENTRAL INDIANA

CITY           SKY/WX    TMP DP  RH WIND       PRES   REMARKS
GREENCASTLE +  CLEAR     46  45  93 CALM      30.11F
LAFAYETTE      MOCLDY    49  44  83 SW5       30.08F
6HR MIN TEMP:  49; 6HR MAX TEMP:  59;

TERRE HAUTE    CLEAR     51  46  83 CALM      30.12S
6HR MIN TEMP:  51; 6HR MAX TEMP:  65;


$$

INZ030>032-037>040-046>048-054>057-064-065-220700-
CENTRAL INDIANA

CITY           SKY/WX    TMP DP  RH WIND       PRES   REMARKS
INDIANAPOLIS   CLEAR     51  41  68 W6        30.11R
6HR MIN TEMP:  51; 6HR MAX TEMP:  68;

-EAGLE CREEK   CLEAR     53  41  63 VRB3      30.10R
6HR MIN TEMP:  52; 6HR MAX TEMP:  67;

KOKOMO +       MOCLDY    51  45  79 SW8       30.07F
6HR MIN TEMP:  51; 6HR MAX TEMP:  62;

SHELBYVILLE    CLEAR     55  40  56 NW13      30.10R
6HR MIN TEMP:  55; 6HR MAX TEMP:  72;


$$

INZ033-034-041-042-049-050-058-059-220700-
EAST CENTRAL INDIANA

CITY           SKY/WX    TMP DP  RH WIND       PRES   REMARKS
MUNCIE         MOCLDY    54  43  66 W12G23    30.09R
6HR MIN TEMP:  54; 6HR MAX TEMP:  70;

RICHMOND +     CLOUDY    55  48  76 NW17G23   30.08R

$$

INZ060-061-067>069-081>083-085>088-220700-
SOUTHWEST INDIANA

CITY           SKY/WX    TMP DP  RH WIND       PRES   REMARKS
EVANSVILLE     CLOUDY    60  49  66 N6        30.14R
6HR MIN TEMP:  60; 6HR MAX TEMP:  73; 6HR PCP: TRACE;

HUNTINGBURG *+ CLOUDY    58  50  75 N12       30.13R
6HR MIN TEMP:  58; 6HR MAX TEMP:  71;


$$

INZ062-063-066-070>080-084-089>092-220700-
SOUTH CENTRAL AND SOUTHEAST INDIANA

CITY           SKY/WX    TMP DP  RH WIND       PRES   REMARKS
BLOOMINGTON    PTCLDY    54  42  64 NW3       30.11F
6HR MIN TEMP:  54; 6HR MAX TEMP:  69;

MADISON *+     CLEAR     59  50  72 W7        30.11R
SEYMOUR +      CLOUDY    59  48  67 NW9       30.11R

$$





USA.gov is the U.S. government's official web portal to all federal, state and local government web resources and services.